{"data":{"norad_id":61068,"epoch":"2026-09-21T07:04:58.645344Z","epoch_age_seconds":123381,"freshness":"FRESH","line1":"1 61068U 24164U   26264.29512321  .00000158  00000+0  16867-4 0  9998","line2":"2 61068  53.1608 261.2750 0001360  84.7793 275.3364 15.31707421113441","mean_motion":15.31707421,"eccentricity":0.000136,"inclination_deg":53.1608,"raan_deg":261.275,"arg_perigee_deg":84.7793,"mean_anomaly_deg":275.3364,"bstar":1.6867e-5,"rev_number":11344,"period_min":94.012732474709,"perigee_km":469.7864294373,"apogee_km":471.64931796294,"semimajor_km":6848.8548737001,"source":"CELESTRAK","updated_at":"2026-09-22T09:00:49.334951Z"}}